OZ7MKS Weather Reports


time (UTC)temp
C
wind
direction
speed
KPH
gust
KPH
rain 1hr
cm
rain 24hr
cm
rain mn
cm
humidity
%
barometer
mb
20260507122503 16 224 3.2 8.0 0.00 0.00 0.00 56 1017.0
20260507122004 16 336 4.8 12.9 0.00 0.00 0.00 56 1017.1
20260507121004 16 273 3.2 11.3 0.00 0.00 0.00 55 1017.0
20260507120504 16 328 1.6 4.8 0.00 0.00 0.00 57 1017.0
20260507115503 16 174 1.6 9.7 0.00 0.00 0.00 57 1017.0
20260507115004 16 196 4.8 9.7 0.00 0.00 0.00 54 1017.0
20260507114504 16 90 4.8 11.3 0.00 0.00 0.00 55 1017.0
20260507114004 16 60 3.2 11.3 0.00 0.00 0.00 57 1017.0
20260507113503 16 82 6.4 12.9 0.00 0.00 0.00 57 1017.1
20260507113004 16 53 3.2 11.3 0.00 0.00 0.00 58 1017.2
20260507112504 16 55 4.8 12.9 0.00 0.00 0.00 57 1017.2
20260507112004 16 337 3.2 9.7 0.00 0.00 0.00 56 1017.2
20260507111504 16 28 3.2 4.8 0.00 0.00 0.00 58 1017.2
20260507110503 15 36 4.8 9.7 0.00 0.00 0.00 59 1017.2
20260507110004 15 95 4.8 9.7 0.00 0.00 0.00 59 1017.2
20260507105504 14 37 4.8 9.7 0.00 0.00 0.00 61 1017.2
20260507105004 13 55 1.6 4.8 0.00 0.00 0.00 58 1017.3
20260507104004 13 323 3.2 4.8 0.00 0.00 0.00 57 1017.3
20260507103504 13 327 3.2 4.8 0.00 0.00 0.00 60 1017.2
20260507103003 14 17 3.2 8.0 0.00 0.00 0.00 58 1017.2
20260507102504 14 6 3.2 4.8 0.00 0.00 0.00 56 1017.2
20260507102006 14 109 1.6 4.8 0.00 0.00 0.00 57 1017.2
20260507101504 14 111 4.8 9.7 0.00 0.00 0.00 57 1017.1
20260507101004 14 23 3.2 12.9 0.00 0.00 0.00 53 1017.1
20260507100503 14 68 4.8 9.7 0.00 0.00 0.00 57 1017.1
20260507100003 14 61 4.8 12.9 0.00 0.00 0.00 55 1017.0
20260507095504 14 43 6.4 11.3 0.00 0.00 0.00 56 1017.0
20260507095004 14 112 4.8 11.3 0.00 0.00 0.00 57 1016.9
20260507094503 14 51 4.8 8.0 0.00 0.00 0.00 59 1016.9
20260507094004 14 71 4.8 8.0 0.00 0.00 0.00 60 1016.9
20260507093004 14 44 3.2 9.7 0.00 0.00 0.00 58 1016.9
20260507092503 13 24 3.2 9.7 0.00 0.00 0.00 61 1016.8
20260507092004 13 83 3.2 11.3 0.00 0.00 0.00 60 1016.8
20260507091504 13 91 4.8 4.8 0.00 0.00 0.00 62 1016.8
20260507091004 13 83 4.8 4.8 0.00 0.00 0.00 64 1016.8
20260507090503 12 103 3.2 4.8 0.00 0.00 0.00 64 1016.8
20260507090004 12 257 1.6 4.8 0.00 0.00 0.00 64 1016.8
20260507085504 11 257 3.2 4.8 0.00 0.00 0.00 62 1016.8
20260507085004 11 256 1.6 4.8 0.00 0.00 0.00 60 1016.8
20260507084503 11 256 1.6 4.8 0.00 0.00 0.00 61 1016.9
20260507084004 11 256 3.2 4.8 0.00 0.00 0.00 64 1016.9
20260507083504 11 255 3.2 8.0 0.00 0.00 0.00 64 1016.8
20260507083004 12 227 1.6 4.8 0.00 0.00 0.00 62 1016.8
20260507082504 12 139 1.6 3.2 0.00 0.00 0.00 59 1016.9
20260507082003 12 136 0.0 4.8 0.00 0.00 0.00 60 1016.8
20260507081504 12 136 3.2 4.8 0.00 0.00 0.00 64 1016.8
20260507081004 12 141 1.6 4.8 0.00 0.00 0.00 62 1016.8
20260507080003 11 54 1.6 3.2 0.00 0.00 0.00 63 1016.8
20260507075503 11 53 1.6 4.8 0.00 0.00 0.00 65 1016.7
20260507075003 11 82 1.6 4.8 0.00 0.00 0.00 66 1016.7
20260507074503 11 69 1.6 3.2 0.00 0.00 0.00 66 1016.6
20260507073504 11 69 1.6 4.8 0.00 0.00 0.00 65 1016.5
20260507073004 11 69 1.6 4.8 0.00 0.00 0.00 65 1016.5
20260507072504 11 71 1.6 4.8 0.00 0.00 0.00 63 1016.5
20260507072004 11 71 3.2 8.0 0.00 0.00 0.00 66 1016.5
20260507071504 11 82 3.2 4.8 0.00 0.00 0.00 66 1016.4
20260507071004 11 102 3.2 9.7 0.00 0.00 0.00 69 1016.4
20260507070007 10 88 3.2 4.8 0.00 0.00 0.00 70 1016.4
20260507065503 10 77 0.0 3.2 0.00 0.00 0.00 72 1016.3
20260507065004 9 77 1.6 4.8 0.00 0.00 0.00 72 1016.3
20260507064504 9 77 0.0 3.2 0.00 0.00 0.00 72 1016.3
20260507064004 9 76 3.2 4.8 0.00 0.00 0.00 74 1016.2
20260507063504 8 344 0.0 0.0 0.00 0.00 0.00 75 1016.3
20260507063003 8 344 0.0 1.6 0.00 0.00 0.00 75 1016.3
20260507062504 8 344 1.6 4.8 0.00 0.00 0.00 74 1016.2
20260507062003 8 344 1.6 3.2 0.00 0.00 0.00 76 1016.2
20260507061504 8 340 0.0 0.0 0.00 0.00 0.00 76 1016.1
20260507061004 7 340 0.0 0.0 0.00 0.00 0.00 77 1016.2
20260507060504 7 340 0.0 0.0 0.00 0.00 0.00 78 1016.1
20260507060003 7 340 0.0 0.0 0.00 0.00 0.00 81 1016.1
20260507055505 7 340 0.0 0.0 0.00 0.00 0.00 82 1016.1
20260507055004 6 340 0.0 0.0 0.00 0.00 0.00 82 1016.1
20260507054503 6 340 0.0 0.0 0.00 0.00 0.00 85 1016.0
20260507053503 5 340 0.0 0.0 0.00 0.00 0.00 86 1015.9
20260507053004 5 340 0.0 0.0 0.00 0.00 0.00 87 1015.8
20260507052503 5 340 0.0 0.0 0.00 0.00 0.00 87 1015.8
20260507052004 5 340 0.0 0.0 0.00 0.00 0.00 88 1015.8
20260507051504 5 340 0.0 0.0 0.00 0.00 0.00 89 1015.7
20260507051004 5 340 0.0 0.0 0.00 0.00 0.00 91 1015.7
20260507050005 4 340 0.0 0.0 0.00 0.00 0.00 91 1015.6
20260507045504 3 340 0.0 0.0 0.00 0.00 0.00 92 1015.6
20260507045004 3 340 0.0 0.0 0.00 0.00 0.00 91 1015.6
20260507044004 2 340 0.0 0.0 0.00 0.00 0.00 91 1015.5
20260507043004 2 340 0.0 0.0 0.00 0.00 0.00 91 1015.3
20260507042503 2 340 0.0 0.0 0.00 0.00 0.00 90 1015.3
20260507042004 2 340 0.0 0.0 0.00 0.00 0.00 90 1015.2
20260507041503 2 340 0.0 0.0 0.00 0.00 0.00 90 1015.2
20260507041003 1 340 0.0 0.0 0.00 0.00 0.00 90 1015.2
20260507040504 1 340 0.0 0.0 0.00 0.00 0.00 89 1015.1
20260507035004 1 340 0.0 0.0 0.00 0.00 0.00 89 1015.1
20260507034003 1 340 0.0 0.0 0.00 0.00 0.00 88 1015.0
20260507033504 2 340 0.0 0.0 0.00 0.00 0.00 88 1014.9
20260507033003 2 340 0.0 0.0 0.00 0.00 0.00 89 1015.0
20260507032504 2 340 0.0 0.0 0.00 0.00 0.00 89 1015.0
20260507032004 2 340 0.0 0.0 0.00 0.00 0.00 89 1015.0
20260507031504 2 340 0.0 0.0 0.00 0.00 0.00 89 1014.9
20260507030504 2 340 0.0 0.0 0.00 0.00 0.00 88 1014.9
20260507030004 2 340 0.0 0.0 0.00 0.00 0.00 89 1014.9
20260507025504 2 340 0.0 0.0 0.00 0.00 0.00 89 1014.9
20260507025004 2 340 0.0 0.0 0.00 0.00 0.00 89 1014.9
20260507024504 2 340 0.0 0.0 0.00 0.00 0.00 89 1014.9
20260507024004 2 340 0.0 0.0 0.00 0.00 0.00 89 1014.8
20260507023504 2 340 0.0 0.0 0.00 0.00 0.00 89 1014.8
20260507023004 2 340 0.0 0.0 0.00 0.00 0.00 89 1014.9
20260507022503 2 340 0.0 0.0 0.00 0.00 0.00 88 1014.9
20260507022003 2 340 0.0 0.0 0.00 0.00 0.00 88 1014.8
20260507021504 2 340 0.0 0.0 0.00 0.00 0.00 88 1014.7
20260507021004 2 340 0.0 0.0 0.00 0.00 0.00 88 1014.7
20260507020504 2 340 0.0 0.0 0.00 0.00 0.00 88 1014.7
20260507015504 2 340 0.0 0.0 0.00 0.00 0.00 88 1014.7
20260507015004 2 340 0.0 0.0 0.00 0.00 0.00 88 1014.7
20260507014504 2 340 0.0 0.0 0.00 0.00 0.00 88 1014.7
20260507014004 2 340 0.0 0.0 0.00 0.00 0.00 88 1014.6
20260507013503 2 340 0.0 0.0 0.00 0.00 0.00 87 1014.5
20260507013003 2 340 0.0 0.0 0.00 0.00 0.00 87 1014.5
20260507012504 2 340 0.0 0.0 0.00 0.00 0.00 87 1014.4
20260507012004 3 340 0.0 0.0 0.00 0.00 0.00 87 1014.5
20260507011503 3 340 0.0 0.0 0.00 0.00 0.00 87 1014.5
20260507011004 3 340 0.0 0.0 0.00 0.00 0.00 87 1014.4
20260507010504 3 340 0.0 0.0 0.00 0.00 0.00 86 1014.4
20260507010004 3 340 0.0 0.0 0.00 0.00 0.00 86 1014.4
20260507005504 3 340 0.0 0.0 0.00 0.00 0.00 86 1014.4
20260507005004 3 340 0.0 0.0 0.00 0.00 0.00 86 1014.4
20260507004503 3 340 0.0 0.0 0.00 0.00 0.00 86 1014.4
20260507004003 3 340 0.0 0.0 0.00 0.00 0.00 86 1014.4
20260507003504 3 340 0.0 0.0 0.00 0.00 0.00 86 1014.4
20260507002504 3 340 0.0 0.0 0.00 0.00 0.00 86 1014.5
20260507002003 3 340 0.0 0.0 0.00 0.00 0.00 86 1014.4
20260507001503 3 340 0.0 0.0 0.00 0.00 0.00 86 1014.4
20260507001003 3 340 0.0 0.0 0.00 0.00 0.00 85 1014.4
20260507000503 3 340 0.0 0.0 0.00 0.00 0.00 86 1014.4
20260507000004 3 340 0.0 0.0 0.00 0.00 0.00 85 1014.4
20260506235504 3 340 0.0 0.0 0.00 0.00 0.00 85 1014.4
20260506234504 3 340 0.0 0.0 0.00 0.00 0.00 85 1014.4
20260506234004 3 340 0.0 0.0 0.00 0.00 0.00 85 1014.5
20260506233503 3 340 0.0 0.0 0.00 0.00 0.00 85 1014.5
20260506233003 3 340 0.0 0.0 0.00 0.00 0.00 85 1014.5
20260506232004 3 340 0.0 1.6 0.00 0.00 0.00 85 1014.5
20260506231003 3 340 0.0 0.0 0.00 0.00 0.00 84 1014.4
20260506230503 3 340 0.0 0.0 0.00 0.00 0.00 84 1014.4
20260506230004 3 340 0.0 0.0 0.00 0.00 0.00 83 1014.5
20260506225504 3 340 0.0 0.0 0.00 0.00 0.00 83 1014.5
20260506224503 3 340 0.0 0.0 0.00 0.00 0.00 83 1014.4
20260506223504 3 340 1.6 3.2 0.00 0.00 0.00 83 1014.4
20260506222504 3 340 0.0 0.0 0.00 0.00 0.00 83 1014.3
20260506222004 3 340 1.6 3.2 0.00 0.00 0.00 83 1014.3
20260506221504 4 340 0.0 0.0 0.00 0.00 0.00 83 1014.3
20260506221003 4 340 0.0 3.2 0.00 0.00 0.00 83 1014.3
20260506220503 4 340 0.0 0.0 0.00 0.00 0.00 83 1014.3
20260506220004 4 340 0.0 0.0 0.00 0.00 0.00 83 1014.3
20260506215504 4 340 0.0 0.0 0.00 0.00 0.00 82 1014.2
20260506215004 4 340 0.0 0.0 0.00 0.00 0.00 82 1014.1
20260506214504 4 340 0.0 3.2 0.00 0.00 0.00 82 1014.1
20260506214003 4 340 1.6 3.2 0.00 0.00 0.00 82 1014.1
20260506213504 4 340 0.0 1.6 0.00 0.00 0.00 82 1014.0
20260506213004 4 340 0.0 1.6 0.00 0.00 0.00 82 1013.9
20260506212503 4 340 0.0 1.6 0.00 0.00 0.00 81 1014.0
20260506212003 4 340 0.0 1.6 0.00 0.00 0.00 81 1014.0
20260506211503 5 340 0.0 0.0 0.00 0.00 0.00 80 1013.9
20260506211003 5 340 0.0 0.0 0.00 0.00 0.00 81 1013.8
20260506210504 5 340 0.0 1.6 0.00 0.00 0.00 80 1013.8
20260506210004 5 340 1.6 4.8 0.00 0.00 0.00 80 1013.8
20260506205504 5 339 0.0 0.0 0.00 0.00 0.00 80 1013.8
20260506204004 5 340 0.0 0.0 0.00 0.00 0.00 79 1013.8
20260506203504 5 340 0.0 0.0 0.00 0.00 0.00 78 1013.8
20260506203004 5 340 0.0 0.0 0.00 0.00 0.00 78 1013.7
20260506202504 5 340 0.0 1.6 0.00 0.00 0.00 79 1013.7
20260506202004 5 340 3.2 4.8 0.00 0.00 0.00 78 1013.7
20260506201503 5 345 1.6 3.2 0.00 0.00 0.00 79 1013.7
20260506201004 5 345 1.6 3.2 0.00 0.00 0.00 78 1013.7
20260506200504 5 345 0.0 4.8 0.00 0.00 0.00 77 1013.7
20260506200003 5 346 0.0 3.2 0.00 0.00 0.00 77 1013.7
20260506195504 5 346 0.0 3.2 0.00 0.00 0.00 76 1013.6
20260506195004 5 346 0.0 0.0 0.00 0.00 0.00 75 1013.6
20260506194503 5 346 0.0 1.6 0.00 0.00 0.00 73 1013.6
20260506194004 6 346 0.0 0.0 0.00 0.00 0.00 73 1013.7
20260506193504 6 346 0.0 0.0 0.00 0.00 0.00 72 1013.6
20260506193004 6 346 0.0 3.2 0.00 0.00 0.00 70 1013.6
20260506192504 6 346 0.0 1.6 0.00 0.00 0.00 69 1013.5
20260506191503 7 338 0.0 3.2 0.00 0.00 0.00 67 1013.5
20260506191004 7 336 0.0 3.2 0.00 0.00 0.00 67 1013.4
20260506190504 7 335 1.6 4.8 0.00 0.00 0.00 67 1013.3
20260506190004 7 334 0.0 4.8 0.00 0.00 0.00 67 1013.3
20260506185003 7 355 1.6 4.8 0.00 0.00 0.00 65 1013.3
20260506184504 7 1 1.6 8.0 0.00 0.00 0.00 66 1013.2
20260506184003 8 332 1.6 4.8 0.00 0.00 0.00 66 1013.1
20260506183503 8 0 1.6 4.8 0.00 0.00 0.00 66 1013.1
20260506183004 8 9 3.2 9.7 0.00 0.00 0.00 64 1013.1
20260506182503 8 7 1.6 4.8 0.00 0.00 0.00 65 1013.1
20260506182004 8 337 4.8 12.9 0.00 0.00 0.00 64 1013.1
20260506181503 8 337 3.2 8.0 0.00 0.00 0.00 64 1013.1
20260506181004 8 337 3.2 12.9 0.00 0.00 0.00 64 1013.0
20260506180503 8 18 1.6 12.9 0.00 0.00 0.00 66 1012.9
20260506180004 9 17 3.2 8.0 0.00 0.00 0.00 66 1012.9
20260506175504 9 348 3.2 12.9 0.00 0.00 0.00 65 1012.8
20260506175003 9 357 4.8 16.1 0.00 0.00 0.00 65 1012.8
20260506174503 9 316 4.8 14.5 0.00 0.00 0.00 64 1012.7
20260506174003 9 345 6.4 12.9 0.00 0.00 0.00 64 1012.7
20260506173503 9 314 4.8 14.5 0.00 0.00 0.00 63 1012.7
20260506173004 10 5 4.8 12.9 0.00 0.00 0.00 65 1012.7
20260506172503 10 2 4.8 16.1 0.00 0.00 0.00 64 1012.7
20260506172004 10 355 4.8 12.9 0.00 0.00 0.00 65 1012.7
20260506171503 10 336 4.8 16.1 0.00 0.00 0.00 64 1012.6
20260506171003 10 319 4.8 16.1 0.00 0.00 0.00 63 1012.6
20260506170503 10 334 8.0 14.5 0.00 0.00 0.00 62 1012.6
20260506170004 11 314 4.8 19.3 0.00 0.00 0.00 62 1012.6
20260506165504 11 335 4.8 12.9 0.00 0.00 0.00 63 1012.5
20260506165004 11 341 4.8 14.5 0.00 0.00 0.00 62 1012.5
20260506163503 11 12 3.2 14.5 0.00 0.00 0.00 62 1012.4
20260506162504 12 6 3.2 14.5 0.00 0.00 0.00 62 1012.4
20260506162003 12 5 4.8 19.3 0.00 0.00 0.00 61 1012.4
20260506161004 12 52 6.4 14.5 0.00 0.00 0.00 61 1012.4
20260506160504 12 28 4.8 14.5 0.00 0.00 0.00 62 1012.3
20260506160004 12 11 4.8 16.1 0.00 0.00 0.00 62 1012.4
20260506155504 12 23 4.8 19.3 0.00 0.00 0.00 61 1012.4
20260506155004 12 8 8.0 14.5 0.00 0.00 0.00 60 1012.3
20260506154503 12 5 3.2 12.9 0.00 0.00 0.00 62 1012.3
20260506154004 12 13 6.4 16.1 0.00 0.00 0.00 61 1012.3
20260506153504 13 355 4.8 14.5 0.00 0.00 0.00 61 1012.3
20260506153003 13 336 4.8 14.5 0.00 0.00 0.00 60 1012.3
20260506152504 13 323 3.2 12.9 0.00 0.00 0.00 60 1012.3
20260506152004 13 312 4.8 12.9 0.00 0.00 0.00 58 1012.2
20260506151503 13 20 4.8 9.7 0.00 0.00 0.00 59 1012.2
20260506151004 13 342 4.8 12.9 0.00 0.00 0.00 57 1012.2
20260506150003 13 266 4.8 19.3 0.00 0.00 0.00 57 1012.2
20260506145504 14 322 4.8 12.9 0.00 0.00 0.00 57 1012.2
20260506145003 14 347 4.8 8.0 0.00 0.00 0.00 60 1012.2
20260506144504 14 343 4.8 14.5 0.00 0.00 0.00 59 1012.2
20260506144004 13 245 3.2 12.9 0.00 0.00 0.00 59 1012.2
20260506143503 13 12 3.2 9.7 0.00 0.00 0.00 56 1012.2
20260506143004 13 341 4.8 9.7 0.00 0.00 0.00 57 1012.2
20260506142503 14 317 4.8 11.3 0.00 0.00 0.00 56 1012.2
20260506142004 14 331 3.2 4.8 0.00 0.00 0.00 58 1012.2
20260506141504 14 291 1.6 4.8 0.00 0.00 0.00 57 1012.1
20260506140504 13 353 3.2 9.7 0.00 0.00 0.00 60 1012.2
20260506140003 13 282 3.2 11.3 0.00 0.00 0.00 58 1012.2
20260506135503 13 315 3.2 11.3 0.00 0.00 0.00 58 1012.2
20260506135004 13 328 4.8 12.9 0.00 0.00 0.00 57 1012.2
20260506134503 13 331 4.8 14.5 0.00 0.00 0.00 59 1012.2
20260506134004 13 49 4.8 12.9 0.00 0.00 0.00 63 1012.2
20260506133503 13 355 3.2 11.3 0.00 0.00 0.00 59 1012.2
20260506133004 13 321 4.8 9.7 0.00 0.00 0.00 60 1012.3
20260506132504 13 4 1.6 9.7 0.00 0.00 0.00 61 1012.2
20260506132004 13 49 3.2 14.5 0.00 0.00 0.00 62 1012.3
20260506131503 13 39 4.8 16.1 0.00 0.00 0.00 61 1012.3
20260506130504 13 310 3.2 9.7 0.00 0.00 0.00 61 1012.3
20260506130003 14 349 4.8 12.9 0.00 0.00 0.00 60 1012.4
20260506125504 13 41 3.2 9.7 0.00 0.00 0.00 60 1012.4
20260506125004 13 334 3.2 8.0 0.00 0.00 0.00 61 1012.4
20260506124504 13 7 3.2 9.7 0.00 0.00 0.00 62 1012.4
20260506124004 13 20 4.8 19.3 0.00 0.00 0.00 61 1012.4
20260506123504 13 266 4.8 14.5 0.00 0.00 0.00 59 1012.4
20260506123004 14 340 4.8 9.7 0.00 0.00 0.00 57 1012.4